User: anonymous   Login
Location: Gerlach
(40.6516°N, 119.3568°W)
Time: 02:31:25
(UTC-07:00)
Language:

ISS - Orbit

View from above orbital plane
View from above orbital plane
View from above satellite
View from above satellite

Ground track
Ground track

The orbit data is extracted from the following two-line orbital elements,

1 25544U 98067A   24283.24020010  .00006615  00000-0  12586-3 0  9991
2 25544  51.6360 110.4759 0008797  52.7655 113.6830 15.49501009476239
Epoch (UTC): 09 October 2024 05:45:53
Eccentricity: 0.0008797
inclination: 51.6360°
perigee height: 412 km
apogee height: 424 km
right ascension of ascending node: 110.4759°
argument of perigee: 52.7655°
revolutions per day: 15.49501009
mean anomaly at epoch: 113.6830°
orbit number at epoch: 47623

The dashed part of the orbit path shows where the satellite is in the earth's shadow,  

DLR